[[{"header":{"parameterUnit":"m.s-1","parameterCategory":1,"la1":30.2992,"la2":30.254,"lo1":-89.0895,"lo2":-89.0443,"dy":0.0025,"dx":0.0025,"nx":19,"ny":19,"refTime":"2026-03-10T03:00:00:Z","depth":0,"parameterNumber":2,"parameterNumberName":"U-component_of_WINDS"},"data":[0,0,0,-1.6861,-1.6862,-1.6938,-1.6939,-1.7035,-1.7036,0,0,0,0,0,0,0,0,0,0,0,-1.6836,-1.6837,-1.6861,-1.6863,-1.6938,-1.6939,-1.7035,-1.7036,0,0,0,0,0,0,0,0,0,0,0,-1.6836,-1.6837,-1.6837,-1.6863,-1.6938,-1.6939,-1.7034,-1.6978,0,0,0,0,0,0,0,0,0,0,-1.6905,-1.6879,-1.6837,-1.6837,-1.6863,-1.6938,-1.6939,-1.6975,-1.6981,-1.7,0,-1.7014,0,-1.7026,-1.7042,-1.7042,0,0,0,-1.6864,-1.6874,-1.6896,-1.6838,-1.6864,-1.6938,-1.6905,-1.6979,-1.6986,-1.7008,-1.7015,-1.7019,-1.7028,-1.7042,-1.7043,-1.7138,-1.7138,0,0,-1.686,-1.6849,-1.6891,-1.6901,-1.6887,-1.6902,-1.6907,-1.6983,-1.6991,-1.7016,-1.7021,-1.7029,-1.7043,-1.7044,-1.7138,-1.7138,0,0,0,-1.6847,-1.6846,-1.6867,-1.6897,-1.691,-1.6904,-1.691,-1.6987,-1.6995,-1.7022,-1.703,-1.7044,-1.7045,-1.7137,-1.7138,-1.7143,0,0,0,-1.6845,-1.6838,-1.6865,-1.6859,-1.6909,-1.695,-1.6913,-1.699,-1.6999,-1.703,-1.7044,-1.7046,-1.7137,-1.7138,-1.7142,-1.7147,0,0,0,-1.6832,-1.6837,-1.6847,-1.6858,-1.689,-1.6949,-1.6961,-1.6992,-1.7004,-1.7042,-1.7046,-1.7137,-1.7137,-1.7141,-1.7145,-1.7167,0,0,0,-1.6816,-1.6851,-1.6847,-1.689,-1.6889,-1.6951,-1.696,-1.7008,-1.7041,-1.7044,-1.7137,-1.7138,-1.7141,-1.7145,-1.7166,-1.7183,-1.7189,0,0,-1.6854,-1.6856,-1.6882,-1.688,-1.694,-1.6941,-1.7002,-1.7044,-1.7059,-1.7111,-1.7114,-1.7142,-1.7145,-1.7167,-1.723,-1.7234,0,0,0,-1.689,-1.6909,-1.6927,-1.6958,-1.6991,-1.702,-1.7054,-1.707,-1.7114,-1.7083,-1.7157,-1.716,-1.7173,-1.7181,-1.7185,-1.7197,-1.7142,-1.7141,-1.7141,-1.6928,-1.6944,-1.6989,-1.7014,-1.7045,-1.708,-1.7106,-1.7134,-1.7143,-1.716,-1.7175,-1.7211,-1.722,-1.7223,-1.7235,-1.7186,-1.7187,-1.7187,-1.7187,-1.6984,-1.7013,-1.7023,-1.707,-1.7088,-1.7128,-1.7165,-1.7169,-1.721,-1.7201,-1.7213,-1.72,-1.7227,-1.7239,-1.7187,-1.7187,-1.7187,-1.7187,-1.7187,-1.7009,-1.7025,-1.7044,-1.7091,-1.7126,-1.7152,-1.719,-1.7206,-1.7221,-1.7234,-1.7251,-1.7251,-1.7252,-1.7241,-1.7241,-1.7242,-1.7242,-1.7242,-1.7242,-1.7026,-1.7047,-1.7077,-1.7115,-1.7137,-1.7169,-1.7206,-1.7228,-1.7258,-1.7267,-1.7267,-1.7273,-1.7228,-1.7215,-1.7244,-1.7243,-1.7243,-1.7243,-1.7243,-1.7075,-1.7066,-1.7111,-1.7134,-1.718,-1.7214,-1.7234,-1.728,-1.7301,-1.732,-1.7325,-1.7289,-1.7291,-1.7288,-1.7277,-1.7321,-1.7321,-1.7321,-1.7321,-1.7094,-1.7097,-1.7147,-1.7181,-1.7217,-1.724,-1.7292,-1.7322,-1.7352,-1.7367,-1.7363,-1.7352,-1.7348,-1.7353,-1.7348,-1.7338,-1.7397,-1.7397,-1.7397,-1.7124,-1.7132,-1.7171,-1.7199,-1.7237,-1.727,-1.7319,-1.736,-1.7392,-1.74,-1.7378,-1.7375,-1.7356,-1.7349,-1.7354,-1.7347,-1.7329,0,0]},{"header":{"parameterUnit":"m.s-1","parameterCategory":1,"la1":30.2992,"la2":30.254,"lo1":-89.0895,"lo2":-89.0443,"dy":0.0025,"dx":0.0025,"nx":19,"ny":19,"refTime":"2026-03-10T03:00:00:Z","depth":0,"parameterNumber":3,"parameterNumberName":"V-component_of_WINDS"},"data":[0,0,0,3.0021,3.002,2.9966,2.9966,2.9891,2.989,0,0,0,0,0,0,0,0,0,0,0,3.0033,3.0032,3.0021,3.002,2.9966,2.9966,2.9891,2.989,0,0,0,0,0,0,0,0,0,0,0,3.0033,3.0033,3.0032,3.002,2.9966,2.9966,2.9891,2.9934,0,0,0,0,0,0,0,0,0,0,2.9987,2.9994,3.0033,3.0032,3.0019,2.9966,2.9966,2.9936,2.9931,2.9913,0,2.9895,0,2.9891,2.9885,2.9884,0,0,0,3.0023,2.9998,2.9988,3.0032,3.0019,2.9966,2.9991,2.9933,2.9928,2.9906,2.9894,2.9891,2.989,2.9884,2.9884,2.977,2.9769,0,0,3.0026,3.002,2.9991,2.9984,2.9991,2.9993,2.9989,2.993,2.9916,2.9893,2.9889,2.9889,2.9884,2.9883,2.9771,2.977,0,0,0,3.0032,3.0022,3.0014,2.9987,2.9977,2.9991,2.9987,2.9919,2.9916,2.9889,2.9888,2.9883,2.9882,2.9771,2.977,2.9734,0,0,0,3.0034,3.0026,3.0015,3.0011,2.9978,2.9947,2.9977,2.992,2.9914,2.9888,2.9883,2.9881,2.9772,2.9771,2.9737,2.9717,0,0,0,3.0038,3.0027,3.0018,3.0011,2.9988,2.9948,2.9943,2.9919,2.9913,2.9884,2.9881,2.9773,2.9771,2.9739,2.9721,2.9688,0,0,0,3.004,2.9983,3.0017,2.9955,2.9988,2.9926,2.9943,2.9897,2.9867,2.9883,2.9772,2.9771,2.974,2.9724,2.9691,2.966,2.9646,0,0,2.9966,2.9974,2.9938,2.9967,2.9898,2.9935,2.9861,2.9838,2.9839,2.9793,2.9791,2.9736,2.9721,2.9689,2.9572,2.9561,0,0,0,2.9913,2.9887,2.987,2.9844,2.9826,2.9811,2.9801,2.9793,2.9755,2.9815,2.9715,2.9706,2.9687,2.9673,2.9664,2.9649,2.9763,2.9764,2.9764,2.9799,2.9807,2.9749,2.9751,2.9725,2.9718,2.9698,2.9687,2.9699,2.9676,2.9662,2.959,2.9573,2.9566,2.9551,2.9646,2.9646,2.9646,2.9645,2.9693,2.9658,2.9681,2.9633,2.9642,2.9602,2.9594,2.9605,2.957,2.96,2.9583,2.9616,2.9554,2.9541,2.9643,2.9643,2.9644,2.9644,2.9644,2.9619,2.9605,2.9599,2.9565,2.9538,2.9542,2.9509,2.9518,2.9525,2.9509,2.9498,2.9498,2.9501,2.9503,2.9503,2.9503,2.9503,2.9503,2.9502,2.9546,2.954,2.9512,2.9493,2.948,2.9464,2.946,2.9447,2.9435,2.9444,2.9444,2.9461,2.9547,2.9569,2.9499,2.9499,2.95,2.95,2.95,2.9435,2.9463,2.9418,2.9406,2.9388,2.9363,2.9376,2.9351,2.9341,2.9326,2.9347,2.9409,2.9418,2.9425,2.9443,2.9344,2.9344,2.9344,2.9344,2.9374,2.9381,2.934,2.932,2.9301,2.931,2.9263,2.9261,2.9263,2.9258,2.9274,2.93,2.9307,2.9311,2.9321,2.9338,2.9215,2.9215,2.9215,2.9308,2.9314,2.927,2.9275,2.9263,2.9253,2.9209,2.9187,2.9194,2.921,2.9256,2.9261,2.9302,2.9315,2.9329,2.9344,2.9376,0,0]}]]